Tracking 19644 objects as of 26-Apr-2019
HD Live streaming from Space Station
objects crossing your sky now

SL-16 DEB

Track SL-16 DEB now!
10-day predictions


NORAD ID: 39892
Int'l Code: 1993-016BS
Perigee: 715.9 km
Apogee: 890.8 km
Inclination: 71.0 °
Period: 100.8 minutes
Semi major axis: 7174 km
RCS: 0.0093 m2 (small)
Launch date: March 26, 1993
Source: Commonwealth of Independent States (former USSR) (CIS)
Launch site: TYURATAM MISSILE AND SPACE COMPLEX (TTMTR)

Note: This is SATELLITE DEBRIS
aabbcc
Your satellite tracking list
Your tracking list is empty




NASA's NSSDC Master Catalog

Two Line Element Set (TLE):
1 39892U 93016BS  19112.94967832 +.00001558 +00000-0 +59030-3 0  9991
2 39892 070.9815 303.7292 0121887 105.6754 255.7862 14.28650175254111
Source of the keplerian elements: AFSPC